CST,Max TemperatureF,Mean TemperatureF,Min TemperatureF,Max Dew PointF,MeanDew PointF,Min DewpointF,Max Humidity, Mean Humidity, Min Humidity, Max Sea Level PressureIn, Mean Sea Level PressureIn, Min Sea Level PressureIn, Max VisibilityMiles, Mean VisibilityMiles, Min VisibilityMiles, Max Wind SpeedMPH, Mean Wind SpeedMPH, Max Gust SpeedMPH,PrecipitationIn, CloudCover, Events, WindDirDegrees
2012-1-1,41,32,23,24,15,6,81,56,30,30.69,30.50,30.19,10,10,10,33,15,43,0.00,0,,313
2012-1-2,38,26,13,9,6,4,70,49,27,30.73,30.63,30.43,10,10,10,15,8,18,0.00,0,,287
2012-1-3,50,36,21,29,21,10,81,60,39,30.40,30.14,29.94,10,10,10,18,10,24,0.00,0,,224
2012-1-4,56,42,28,27,25,23,78,54,30,30.33,30.24,30.15,10,10,10,24,10,29,0.00,0,,273
2012-1-5,67,50,32,27,25,22,64,43,22,30.13,29.94,29.73,10,10,10,15,7,18,0.00,0,,246
2012-1-6,50,37,23,25,21,14,69,48,26,30.14,29.95,29.70,10,10,10,26,12,32,0.00,0,,336
2012-1-7,41,30,19,27,19,12,75,58,41,30.28,30.21,30.11,10,10,10,10,4,12,0.00,3,,302
2012-1-8,42,35,28,30,28,24,92,76,60,30.35,30.29,30.22,10,10,9,10,6,15,T,6,,211
2012-1-9,53,38,22,26,24,19,88,62,35,30.27,30.17,30.07,10,10,10,12,6,15,0.00,0,,250
2012-1-10,60,43,25,31,27,21,88,60,31,30.05,29.90,29.69,10,10,10,14,6,17,0.00,0,,242
2012-1-11,39,27,15,31,18,2,78,64,49,30.14,29.93,29.64,10,9,2,46,26,56,T,5,Snow,335
2012-1-12,25,17,8,9,-2,-15,84,51,18,30.16,30.10,30.00,10,8,2,31,19,40,T,4,Snow,323
2012-1-13,42,26,9,20,12,-3,73,56,38,30.14,30.04,29.87,10,10,10,17,8,22,0.00,2,,266
2012-1-14,46,37,28,23,16,10,75,50,25,30.23,30.12,29.95,10,10,10,29,12,37,0.00,2,,276
2012-1-15,59,43,27,22,19,14,63,44,24,30.01,29.81,29.70,10,10,10,20,9,25,0.00,0,,192
2012-1-16,35,25,14,23,15,6,81,65,49,30.07,29.84,29.71,10,9,0,28,16,33,T,4,Snow,7
2012-1-17,22,14,6,10,7,1,88,72,56,30.45,30.23,29.96,10,8,1,29,11,35,0.02,3,Snow,313
2012-1-18,45,27,9,22,12,1,80,57,33,30.25,29.99,29.83,10,10,10,22,12,26,0.00,1,,224
2012-1-19,17,10,2,0,-4,-8,69,56,42,30.20,30.07,29.95,10,10,10,20,12,25,0.00,1,,65
2012-1-20,26,18,9,6,3,-1,73,58,42,30.28,30.05,29.89,10,10,10,20,10,25,0.00,2,,46
2012-1-21,29,17,4,17,7,0,83,65,46,30.23,29.94,29.51,10,10,10,26,12,38,0.00,1,,146
2012-1-22,41,29,17,31,25,14,92,70,48,29.72,29.51,29.30,10,6,0,28,13,36,0.12,5,Fog-Snow,340
2012-1-23,45,33,21,27,21,18,75,56,37,30.04,29.92,29.74,10,10,10,25,9,35,0.00,0,,281
2012-1-24,37,28,19,29,23,16,92,81,70,30.26,30.13,30.00,10,9,4,16,7,24,0.00,2,,84
2012-1-25,47,35,22,30,25,17,100,66,31,30.24,30.10,29.93,10,7,1,15,7,18,0.00,3,,288
2012-1-26,50,36,21,32,22,17,82,55,27,30.05,29.97,29.90,10,10,10,28,11,33,T,1,,315
2012-1-27,46,35,23,26,20,14,68,54,40,30.32,30.02,29.80,10,10,10,35,12,43,0.00,5,,338
2012-1-28,45,31,16,17,9,1,80,48,16,30.34,30.28,30.20,10,10,10,29,14,37,0.00,0,,274
2012-1-29,54,39,23,19,11,6,50,35,19,30.25,30.11,29.91,10,10,10,15,7,22,0.00,5,,221
2012-1-30,69,51,33,24,20,17,56,35,14,29.89,29.80,29.72,10,10,10,17,9,21,0.00,0,,231
2012-1-31,59,44,29,29,21,15,63,44,24,30.11,29.93,29.76,10,10,10,24,9,29,0.00,0,,293